Met observations

Date (UTC) Wind direction m/s kts. Vis. * Weather * Cloud * Temperature (°C) Dew point (°C) Air pressure (Hp)
11-12 09:26 10 20 VIS 10 km BKN 2000ft 4.2 1.9 995.4
11-12 08:56 9 17 VIS 10 km BKN 2000ft 3.6 1.6 995.2
11-12 08:26 10 20 VIS 10 km BKN 2000ft 4.0 2.1 995.0
11-12 07:56 9 18 VIS 10 km BKN 2000ft 4.1 1.5 994.5
11-12 07:26 11 21 VIS 10 km BKN 2000ft 4.0 2.0 993.9
11-12 06:56 11 22 VIS 10 km BKN 2000ft 3.6 1.8 993.3
11-12 06:26 10 19 VIS 10 km BKN 2000ft 3.3 1.9 992.9
11-12 05:56 9 17 VIS 10 km BKN 2000ft 3.2 1.7 992.2
11-12 05:26 11 21 VIS 10 km BKN 2000ft 3.4 2.0 991.8
11-12 04:56 10 20 VIS 10 km BKN 2000ft 4.0 1.7 991.3
11-12 04:26 9 17 VIS 10 km BKN 2000ft 3.5 1.9 990.9
11-12 03:56 7 13 VIS 10 km BKN 2000ft 3.0 2.0 990.7
11-12 03:26 10 19 VIS 10 km BKN 2000ft 2.9 1.9 990.7
11-12 02:56 8 15 VIS 10 km BKN 2000ft 2.5 1.3 990.1
11-12 02:26 15 29 VIS 10 km BKN 2000ft 3.1 1.6 989.5
11-12 01:56 14 28 VIS 10 km BKN 2000ft 3.6 1.1 988.9
11-12 01:26 11 21 VIS 10 km BKN 2000ft 2.6 1.4 988.8
11-12 00:56 14 28 VIS 10 km BKN 2000ft 3.4 1.1 988.5
11-12 00:26 13 25 VIS 10 km BKN 2000ft 2.7 1.2 988.6
10-12 23:51 16 31 VIS 10 km BKN 2000ft 3.3 1.0 987.9
10-12 22:56 14 28 VIS 10 km BKN 2000ft 3.5 0.4 987.6
10-12 22:26 14 28 VIS 10 km BKN 2000ft 3.0 1.3 987.5
10-12 21:56 12 24 VIS 10 km BKN 2000ft 3.5 0.5 987.3
10-12 21:26 15 29 VIS 10 km BKN 2000ft 3.5 -0.3 987.2
10-12 20:56 14 27 VIS 10 km BKN 2000ft 3.4 1.0 986.9
10-12 20:26 14 27 VIS 10 km BKN 2000ft 3.5 0.8 986.7
10-12 19:56 11 21 VIS 10 km BKN 2000ft 3.3 1.6 986.5
10-12 19:26 11 22 VIS 10 km BKN 2000ft 3.5 1.2 986.4
10-12 18:56 10 20 VIS 10 km BKN 2000ft 3.0 1.4 986.1
10-12 18:26 13 25 VIS 9 km RAGS BKN 1600ft 3.4 1.4 985.7
10-12 17:56 12 23 VIS 9 km RAGS BKN 1600ft 3.5 1.3 985.3
10-12 17:26 13 25 VIS 5 km SHRAGS BKN 1700ft 3.2 1.5 984.7
10-12 16:56 12 23 VIS 10 km FBL SHRAGS BKN 1800ft 2.9 1.4 984.5
10-12 16:26 11 21 VIS 10 km BKN 1800ft 3.2 1.2 984.1
10-12 15:56 15 29 VIS 10 km BKN 2800ft 3.7 1.0 983.8
10-12 15:26 12 24 VIS 10 km BKN 2800ft 3.4 1.6 983.9
10-12 14:56 13 25 VIS 10 km BKN 2800ft 3.7 1.1 983.8
10-12 14:26 8 16 VIS 10 km BKN 2800ft 3.6 0.9 983.6
10-12 13:56 11 22 VIS 10 km BKN 2800ft 2.6 1.3 983.5
10-12 13:26 15 30 VIS 10 km BKN 2800ft 3.2 1.7 983.3
10-12 12:56 14 28 VIS 10 km BKN 2800ft 3.2 1.4 983.3
10-12 12:26 15 29 VIS 10 km BKN 2800ft 3.3 0.8 983.3
10-12 11:56 15 30 VIS 10 km BKN 2800ft 3.3 0.8 983.3
10-12 11:26 15 29 VIS 10 km BKN 2800ft 2.9 1.2 983.8
10-12 10:56 18 35 VIS 10 km BKN 2800ft 2.9 0.9 984.1
10-12 10:26 18 35 VIS 10 km BKN 2800ft 3.0 0.7 983.6
10-12 09:56 19 37 VIS 10 km BKN 2800ft 2.9 0.6 984.3

Met data is updated every half hour and is for information only.
* Visibility, weather and cloud values are updated during the airport’s service hours only.
Flight planning documentation is available on opmet.dmi.dk.
For meteorological abbreviations, click here